DW2786 Weather Reports


time (UTC)temp
C
wind
direction
speed
KPH
gust
KPH
rain 1hr
cm
rain 24hr
cm
rain mn
cm
humidity
%
barometer
mb
20260508092827 2 202 0.0 0.0 0.00 0.00 0.00 86 1017.4
20260508092337 2 202 0.0 0.0 0.00 0.00 0.00 86 1017.4
20260508091818 2 202 0.0 0.0 0.00 0.00 0.00 86 1017.3
20260508091546 2 202 0.0 0.0 0.00 0.00 0.00 86 1017.4
20260508091326 2 202 0.0 0.0 0.00 0.00 0.00 86 1017.3
20260508090815 2 202 0.0 0.0 0.00 0.00 0.00 86 1017.3
20260508090323 2 218 0.0 0.0 0.00 0.00 0.00 86 1017.2
20260508090057 2 0 0.0 0.0 0.00 0.00 0.00 85 1014.9
20260508090049 2 218 0.0 0.0 0.00 0.00 0.00 86 1017.3
20260508085833 2 218 0.0 0.0 0.00 0.00 0.00 86 1017.2
20260508085317 2 217 0.0 0.0 0.00 0.00 0.00 86 1017.2
20260508084847 2 217 0.0 0.0 0.00 0.00 0.00 86 1017.2
20260508084550 2 217 0.0 0.0 0.00 0.00 0.00 86 1017.3
20260508084534 2 0 0.0 0.0 0.00 0.00 0.00 85 1014.9
20260508084314 2 217 0.0 0.0 0.00 0.00 0.00 86 1017.2
20260508083824 2 217 0.0 0.0 0.00 0.00 0.00 86 1017.3
20260508083332 2 217 0.0 0.0 0.00 0.00 0.00 86 1017.2
20260508083039 2 0 0.0 0.0 0.00 0.00 0.00 85 1014.9
20260508083024 2 217 0.0 0.0 0.00 0.00 0.00 86 1017.3
20260508082821 2 217 0.0 0.0 0.00 0.00 0.00 86 1017.1
20260508082330 2 217 0.0 0.0 0.00 0.00 0.00 86 1017.0
20260508081812 2 223 0.0 0.0 0.00 0.00 0.00 85 1016.9
20260508081616 2 217 0.0 0.0 0.00 0.00 0.00 86 1016.9
20260508081538 2 0 0.0 0.0 0.00 0.00 0.00 85 1014.7
20260508081321 2 240 0.0 0.0 0.00 0.00 0.00 86 1017.0
20260508080811 2 240 0.0 0.0 0.00 0.00 0.00 86 1017.0
20260508080320 2 251 0.0 0.0 0.00 0.00 0.00 86 1017.0
20260508080039 2 251 0.0 0.0 0.00 0.00 0.00 85 1017.1
20260508080037 2 0 0.0 0.0 0.00 0.00 0.00 85 1014.9
20260508075821 2 251 0.0 0.0 0.00 0.00 0.00 85 1017.0
20260508075313 2 251 0.0 0.0 0.00 0.00 0.00 85 1017.1
20260508074838 2 251 0.0 0.0 0.00 0.00 0.00 85 1017.1
20260508074553 2 251 0.0 0.0 0.00 0.00 0.00 85 1017.1
20260508074542 2 0 0.0 0.0 0.00 0.00 0.00 85 1014.8
20260508074309 2 251 0.0 0.0 0.00 0.00 0.00 85 1017.0
20260508073833 2 251 0.0 0.0 0.00 0.00 0.00 85 1017.1
20260508073321 2 251 0.0 0.0 0.00 0.00 0.00 85 1017.1
20260508073037 2 0 0.0 0.0 0.00 0.00 0.00 85 1014.8
20260508073008 2 251 0.0 0.0 0.00 0.00 0.00 85 1017.0
20260508072813 3 251 0.0 0.0 0.00 0.00 0.00 85 1017.0
20260508072323 3 251 0.0 0.0 0.00 0.00 0.00 85 1017.1
20260508071833 3 251 0.0 1.6 0.00 0.00 0.00 85 1017.0
20260508071548 2 251 0.0 1.6 0.00 0.00 0.00 85 1017.0
20260508071312 3 251 0.0 3.2 0.00 0.00 0.00 85 1017.0
20260508070842 3 251 1.6 3.2 0.00 0.00 0.00 85 1017.0
20260508070310 3 251 0.0 0.0 0.00 0.00 0.00 85 1017.2
20260508070036 2 0 0.0 0.0 0.00 0.00 0.00 84 1014.9
20260508070005 2 251 0.0 0.0 0.00 0.00 0.00 85 1017.2
20260508065819 3 251 0.0 0.0 0.00 0.00 0.00 85 1017.2
20260508065330 3 251 0.0 3.2 0.00 0.00 0.00 85 1017.1
20260508064839 3 251 1.6 3.2 0.00 0.00 0.00 84 1017.2
20260508064540 3 251 0.0 3.2 0.00 0.00 0.00 84 1015.0
20260508064523 3 251 1.6 3.2 0.00 0.00 0.00 84 1017.2
20260508064328 3 251 0.0 3.2 0.00 0.00 0.00 84 1017.2
20260508063811 3 251 0.0 1.6 0.00 0.00 0.00 84 1017.1
20260508063320 3 251 0.0 0.0 0.00 0.00 0.00 84 1017.1
20260508063041 3 0 0.0 0.0 0.00 0.00 0.00 84 1015.0
20260508063012 3 251 0.0 0.0 0.00 0.00 0.00 84 1017.1
20260508062828 3 251 0.0 0.0 0.00 0.00 0.00 84 1017.1
20260508062317 3 251 0.0 0.0 0.00 0.00 0.00 84 1017.1
20260508061827 3 251 0.0 0.0 0.00 0.00 0.00 84 1017.1
20260508061543 3 251 0.0 0.0 0.00 0.00 0.00 84 1017.1
20260508061538 3 0 0.0 0.0 0.00 0.00 0.00 84 1014.7
20260508061328 3 251 0.0 0.0 0.00 0.00 0.00 84 1016.9
20260508060816 3 251 0.0 0.0 0.00 0.00 0.00 84 1016.9
20260508060324 3 251 0.0 0.0 0.00 0.00 0.00 84 1017.0
20260508060037 3 0 0.0 0.0 0.00 0.00 0.00 83 1014.7
20260508060021 3 251 0.0 0.0 0.00 0.00 0.00 84 1017.0
20260508055832 3 251 0.0 0.0 0.00 0.00 0.00 84 1017.1
20260508055316 3 251 0.0 3.2 0.00 0.00 0.00 84 1017.1
20260508054824 3 251 0.0 3.2 0.00 0.00 0.00 84 1017.0
20260508054537 3 251 0.0 3.2 0.00 0.00 0.00 83 1014.9
20260508054506 3 251 0.0 3.2 0.00 0.00 0.00 84 1017.1
20260508054313 3 251 1.6 3.2 0.00 0.00 0.00 84 1017.1
20260508053822 3 251 0.0 3.2 0.00 0.00 0.00 83 1017.1
20260508053325 3 251 1.6 3.2 0.00 0.00 0.00 83 1017.2
20260508053058 3 0 0.0 3.2 0.00 0.00 0.00 83 1015.0
20260508053055 3 251 0.0 3.2 0.00 0.00 0.00 83 1017.2
20260508052834 4 251 0.0 3.2 0.00 0.00 0.00 83 1017.2
20260508052322 4 251 0.0 3.2 0.00 0.00 0.00 83 1017.3
20260508051833 4 251 1.6 1.6 0.00 0.00 0.00 83 1017.2
20260508051553 3 250 0.0 1.6 0.00 0.00 0.00 83 1017.2
20260508051535 3 0 0.0 1.6 0.00 0.00 0.00 82 1014.9
20260508051349 4 250 0.0 0.0 0.00 0.00 0.00 83 1017.3
20260508050829 4 250 0.0 0.0 0.00 0.00 0.00 83 1017.3
20260508050318 4 250 0.0 3.2 0.00 0.00 0.00 83 1017.3
20260508050040 4 0 0.0 3.2 0.00 0.00 0.00 82 1014.9
20260508050019 4 250 0.0 3.2 0.00 0.00 0.00 83 1017.3
20260508045822 4 250 0.0 3.2 0.00 0.00 0.00 82 1017.2
20260508045352 4 250 0.0 1.6 0.00 0.00 0.00 82 1017.2
20260508044815 5 250 0.0 3.2 0.00 0.00 0.00 82 1017.3
20260508044555 4 250 0.0 3.2 0.00 0.00 0.00 82 1017.2
20260508044537 4 250 0.0 3.2 0.00 0.00 0.00 81 1015.0
20260508044322 5 250 0.0 3.2 0.00 0.00 0.00 82 1017.3
20260508043811 5 250 0.0 3.2 0.00 0.00 0.00 82 1017.3
20260508043321 5 250 1.6 3.2 0.00 0.00 0.00 81 1017.3
20260508043037 5 250 0.0 3.2 0.00 0.00 0.00 81 1014.9
20260508043029 5 250 0.0 3.2 0.00 0.00 0.00 81 1017.2
20260508042829 5 250 0.0 0.0 0.00 0.00 0.00 81 1017.2
20260508042309 5 250 0.0 0.0 0.00 0.00 0.00 81 1017.1
20260508041839 5 250 0.0 0.0 0.00 0.00 0.00 81 1017.1
20260508041603 5 0 0.0 0.0 0.00 0.00 0.00 80 1014.8
20260508041553 5 250 0.0 0.0 0.00 0.00 0.00 81 1017.1
20260508041327 5 250 0.0 0.0 0.00 0.00 0.00 80 1017.1
20260508040815 5 250 0.0 0.0 0.00 0.00 0.00 80 1017.1
20260508040323 5 250 0.0 0.0 0.00 0.00 0.00 80 1017.1
20260508040043 5 0 0.0 0.0 0.00 0.00 0.00 79 1014.8
20260508040020 5 250 0.0 0.0 0.00 0.00 0.00 80 1017.0
20260508035834 5 250 0.0 0.0 0.00 0.00 0.00 79 1017.0
20260508035315 5 250 0.0 0.0 0.00 0.00 0.00 79 1017.1
20260508034833 6 250 0.0 0.0 0.00 0.00 0.00 79 1017.0
20260508034600 5 250 0.0 0.0 0.00 0.00 0.00 79 1016.9
20260508034538 5 0 0.0 0.0 0.00 0.00 0.00 78 1014.7
20260508034314 6 250 0.0 0.0 0.00 0.00 0.00 78 1017.1
20260508033821 6 250 0.0 0.0 0.00 0.00 0.00 78 1017.0
20260508033349 6 250 0.0 0.0 0.00 0.00 0.00 77 1017.1
20260508033057 6 250 0.0 0.0 0.00 0.00 0.00 77 1016.8
20260508033037 6 0 0.0 0.0 0.00 0.00 0.00 76 1014.7
20260508032816 6 250 0.0 0.0 0.00 0.00 0.00 77 1017.0
20260508032324 6 250 0.0 0.0 0.00 0.00 0.00 76 1016.9
20260508031833 6 250 0.0 0.0 0.00 0.00 0.00 76 1017.0
20260508031554 6 250 0.0 0.0 0.00 0.00 0.00 75 1016.8
20260508031540 6 0 0.0 0.0 0.00 0.00 0.00 75 1014.7
20260508031314 6 250 0.0 0.0 0.00 0.00 0.00 75 1016.9
20260508030822 6 250 0.0 0.0 0.00 0.00 0.00 75 1016.9
20260508030309 7 250 0.0 0.0 0.00 0.00 0.00 75 1016.8
20260508030037 6 0 0.0 0.0 0.00 0.00 0.00 74 1014.6
20260508030006 6 250 0.0 0.0 0.00 0.00 0.00 74 1016.6
20260508025838 7 250 0.0 0.0 0.00 0.00 0.00 74 1016.6
20260508025326 7 250 0.0 0.0 0.00 0.00 0.00 73 1016.6
20260508024814 7 250 0.0 0.0 0.00 0.00 0.00 72 1016.5
20260508024544 7 0 0.0 0.0 0.00 0.00 0.00 71 1014.4
20260508024535 7 250 0.0 0.0 0.00 0.00 0.00 72 1016.4
20260508024318 7 250 0.0 0.0 0.00 0.00 0.00 71 1016.5
20260508023825 7 250 0.0 0.0 0.00 0.00 0.00 70 1016.4
20260508023314 7 251 0.0 0.0 0.00 0.00 0.00 69 1016.5
20260508023037 7 0 0.0 0.0 0.00 0.00 0.00 68 1014.1
20260508023035 7 251 0.0 0.0 0.00 0.00 0.00 68 1016.3
20260508022823 7 251 0.0 0.0 0.00 0.00 0.00 68 1016.4
20260508022332 8 251 0.0 0.0 0.00 0.00 0.00 67 1016.4
20260508021815 8 251 0.0 0.0 0.00 0.00 0.00 66 1016.2
20260508021618 8 251 0.0 0.0 0.00 0.00 0.00 66 1016.0
20260508021540 8 0 0.0 0.0 0.00 0.00 0.00 66 1013.9
20260508021324 8 251 0.0 0.0 0.00 0.00 0.00 66 1016.1
20260508020835 8 251 0.0 0.0 0.00 0.00 0.00 65 1016.1
20260508020325 9 251 0.0 0.0 0.00 0.00 0.00 65 1015.9
20260508020045 8 0 0.0 0.0 0.00 0.00 0.00 65 1013.7
20260508020030 8 251 0.0 0.0 0.00 0.00 0.00 65 1015.7
20260508015835 9 251 0.0 0.0 0.00 0.00 0.00 65 1015.9
20260508015318 9 251 0.0 0.0 0.00 0.00 0.00 62 1015.9
20260508014811 10 251 0.0 0.0 0.00 0.00 0.00 59 1015.9
20260508014603 9 251 0.0 0.0 0.00 0.00 0.00 59 1015.7
20260508014537 9 0 0.0 0.0 0.00 0.00 0.00 59 1013.7
20260508014319 10 251 0.0 0.0 0.00 0.00 0.00 58 1015.8
20260508013829 10 251 0.0 0.0 0.00 0.00 0.00 57 1015.7
20260508013312 10 251 0.0 0.0 0.00 0.00 0.00 58 1015.7
20260508013050 10 251 0.0 0.0 0.00 0.00 0.00 61 1015.5
20260508013036 10 0 0.0 0.0 0.00 0.00 0.00 60 1013.4
20260508012821 11 251 0.0 0.0 0.00 0.00 0.00 59 1015.7
20260508012309 11 251 0.0 0.0 0.00 0.00 0.00 61 1015.6
20260508011819 11 251 0.0 0.0 0.00 0.00 0.00 61 1015.5
20260508011542 11 251 0.0 0.0 0.00 0.00 0.00 60 1015.2
20260508011538 11 0 0.0 0.0 0.00 0.00 0.00 59 1013.3
20260508011323 11 251 0.0 0.0 0.00 0.00 0.00 60 1015.4
20260508010814 11 251 0.0 1.6 0.00 0.00 0.00 58 1015.2
20260508010323 11 251 0.0 3.2 0.00 0.00 0.00 54 1015.2
20260508010039 11 0 0.0 4.8 0.00 0.00 0.00 54 1013.1
20260508010035 11 251 0.0 4.8 0.00 0.00 0.00 54 1015.0
20260508005834 12 250 1.6 4.8 0.00 0.00 0.00 55 1015.2
20260508005324 12 251 1.6 4.8 0.00 0.00 0.00 56 1015.1
20260508004833 12 254 1.6 4.8 0.00 0.00 0.00 54 1015.2
20260508004537 12 265 1.6 3.2 0.00 0.00 0.00 52 1012.9
20260508004524 12 265 1.6 3.2 0.00 0.00 0.00 52 1015.0
20260508004322 12 251 1.6 3.2 0.00 0.00 0.00 53 1015.1
20260508003825 13 254 0.0 3.2 0.00 0.00 0.00 52 1015.0
20260508003336 13 251 1.6 3.2 0.00 0.00 0.00 48 1014.9
20260508003102 13 251 0.0 3.2 0.00 0.00 0.00 48 1014.8
20260508003039 13 251 1.6 3.2 0.00 0.00 0.00 48 1012.9
20260508002824 13 254 1.6 3.2 0.00 0.00 0.00 44 1014.9
20260508002315 13 268 1.6 3.2 0.00 0.00 0.00 44 1014.9
20260508001827 14 286 1.6 3.2 0.00 0.00 0.00 44 1014.8
20260508001543 13 269 1.6 3.2 0.00 0.00 0.00 45 1014.6
20260508001540 13 269 0.0 6.4 0.00 0.00 0.00 41 1012.7
20260508001310 14 277 0.0 6.4 0.00 0.00 0.00 39 1014.8
20260508000819 14 277 0.0 6.4 0.00 0.00 0.00 39 1014.7
20260508000329 14 290 1.6 4.8 0.00 0.00 0.00 38 1014.7
20260508000038 14 293 0.0 4.8 0.00 0.00 0.00 37 1012.4
20260508000033 14 293 0.0 4.8 0.00 0.00 0.00 37 1014.4
20260507235811 15 288 0.0 4.8 0.00 0.00 0.00 38 1014.6
20260507235322 15 248 1.6 6.4 0.00 0.00 0.00 38 1014.5
20260507234810 15 194 1.6 6.4 0.00 0.00 0.00 37 1014.5
20260507234552 15 150 1.6 6.4 0.00 0.00 0.00 36 1014.3
20260507234537 15 0 0.0 6.4 0.00 0.00 0.00 36 1012.2
20260507234349 15 102 0.0 6.4 0.00 0.00 0.00 38 1014.4
20260507233828 15 229 1.6 4.8 0.00 0.00 0.00 38 1014.4
20260507233318 15 349 1.6 6.4 0.00 0.00 0.00 38 1014.3
20260507233054 15 238 0.0 6.4 0.00 0.00 0.00 38 1012.2
20260507233018 15 239 0.0 6.4 0.00 0.00 0.00 38 1014.2
20260507232828 15 255 3.2 6.4 0.00 0.00 0.00 37 1014.3
20260507232310 15 113 1.6 12.9 0.00 0.00 0.00 37 1014.3
20260507231820 15 303 4.8 12.9 0.00 0.00 0.00 37 1014.3
20260507231602 15 277 0.0 12.9 0.00 0.00 0.00 37 1014.1
20260507231539 15 261 3.2 12.9 0.00 0.00 0.00 36 1012.1
20260507231310 16 284 1.6 6.4 0.00 0.00 0.00 38 1014.3
20260507230820 16 227 0.0 4.8 0.00 0.00 0.00 39 1014.2
20260507230331 16 85 1.6 8.0 0.00 0.00 0.00 38 1014.1
20260507230044 16 264 1.6 8.0 0.00 0.00 0.00 37 1013.9
20260507230040 16 267 1.6 9.7 0.00 0.00 0.00 38 1011.9
20260507225815 16 157 1.6 8.0 0.00 0.00 0.00 38 1014.0
20260507225324 16 338 1.6 8.0 0.00 0.00 0.00 38 1014.0
20260507224813 17 271 1.6 3.2 0.00 0.00 0.00 39 1014.0
20260507224539 17 263 0.0 6.4 0.00 0.00 0.00 38 1011.8
20260507224531 17 263 0.0 6.4 0.00 0.00 0.00 39 1013.8
20260507224322 17 319 0.0 6.4 0.00 0.00 0.00 41 1014.0
20260507223833 17 360 1.6 8.0 0.00 0.00 0.00 40 1013.9
20260507223317 17 329 3.2 8.0 0.00 0.00 0.00 37 1013.9
20260507223034 17 280 0.0 11.3 0.00 0.00 0.00 41 1011.7
20260507223004 17 121 0.0 11.3 0.00 0.00 0.00 41 1013.7
20260507222846 17 277 0.0 11.3 0.00 0.00 0.00 42 1013.7
20260507222315 17 306 1.6 11.3 0.00 0.00 0.00 43 1013.5
20260507221822 17 310 1.6 9.7 0.00 0.00 0.00 42 1013.5
20260507221538 17 0 1.6 9.7 0.00 0.00 0.00 41 1011.6
20260507221536 17 228 1.6 9.7 0.00 0.00 0.00 42 1013.4
20260507221332 17 279 3.2 9.7 0.00 0.00 0.00 41 1013.7
20260507220815 17 318 3.2 9.7 0.00 0.00 0.00 43 1013.7
20260507220344 17 91 3.2 12.9 0.00 0.00 0.00 43 1013.6
20260507220050 16 54 1.6 12.9 0.00 0.00 0.00 42 1013.4
20260507220039 16 51 1.6 12.9 0.00 0.00 0.00 40 1011.6
20260507215812 17 314 3.2 12.9 0.00 0.00 0.00 42 1013.5
20260507215342 17 279 1.6 14.5 0.00 0.00 0.00 44 1013.4
20260507214829 17 270 4.8 14.5 0.00 0.00 0.00 45 1013.5
20260507214559 16 5 0.0 4.8 0.00 0.00 0.00 49 1013.3
20260507214537 16 0 0.0 4.8 0.00 0.00 0.00 48 1011.4
20260507214317 17 10 1.6 4.8 0.00 0.00 0.00 45 1013.4
20260507213826 17 324 1.6 4.8 0.00 0.00 0.00 43 1013.4
20260507213334 17 348 1.6 4.8 0.00 0.00 0.00 44 1013.4
20260507213050 17 46 1.6 4.8 0.00 0.00 0.00 43 1013.3
20260507213041 17 46 0.0 4.8 0.00 0.00 0.00 42 1011.4
20260507212844 17 55 0.0 4.8 0.00 0.00 0.00 45 1013.3
20260507212335 17 15 1.6 4.8 0.00 0.00 0.00 41 1013.3
20260507211816 17 38 3.2 12.9 0.00 0.00 0.00 42 1013.2
20260507211532 17 0 3.2 12.9 0.00 0.00 0.00 40 1011.0
20260507211503 17 269 3.2 12.9 0.00 0.00 0.00 41 1013.0
20260507211310 17 312 4.8 9.7 0.00 0.00 0.00 39 1013.2
20260507210819 17 115 3.2 17.7 0.00 0.00 0.00 40 1013.3
20260507210320 18 39 4.8 17.7 0.00 0.00 0.00 41 1013.2
20260507210116 17 219 8.0 17.7 0.00 0.00 0.00 39 1012.9
20260507210045 17 281 4.8 17.7 0.00 0.00 0.00 38 1010.9
20260507205829 18 198 3.2 8.0 0.00 0.00 0.00 40 1013.0
20260507205319 18 30 1.6 4.8 0.00 0.00 0.00 41 1012.9
20260507204849 18 288 1.6 8.0 0.00 0.00 0.00 43 1012.9
20260507204540 17 112 3.2 9.7 0.00 0.00 0.00 42 1010.8
20260507204521 17 113 3.2 8.0 0.00 0.00 0.00 43 1012.8
20260507204338 18 196 3.2 8.0 0.00 0.00 0.00 40 1013.1
20260507203828 18 234 3.2 9.7 0.00 0.00 0.00 42 1013.0
20260507203336 18 49 1.6 6.4 0.00 0.00 0.00 43 1013.0
20260507203043 17 34 1.6 12.9 0.00 0.00 0.00 41 1010.8
20260507203027 17 31 1.6 12.9 0.00 0.00 0.00 42 1012.8
20260507202824 18 35 1.6 12.9 0.00 0.00 0.00 41 1012.9
20260507202333 18 296 3.2 9.7 0.00 0.00 0.00 40 1013.1
20260507201816 18 5 1.6 9.7 0.00 0.00 0.00 42 1013.1
20260507201539 18 88 3.2 12.9 0.00 0.00 0.00 40 1010.9
20260507201516 18 27 3.2 9.7 0.00 0.00 0.00 40 1013.0
20260507201345 18 153 1.6 12.9 0.00 0.00 0.00 40 1013.1
20260507200811 18 12 3.2 12.9 0.00 0.00 0.00 39 1013.1
20260507200319 18 281 3.2 11.3 0.00 0.00 0.00 44 1013.1
20260507200051 18 321 1.6 8.0 0.00 0.00 0.00 47 1013.0
20260507200038 18 0 1.6 8.0 0.00 0.00 0.00 46 1010.9
20260507195849 18 97 3.2 8.0 0.00 0.00 0.00 43 1013.1
20260507195311 18 99 3.2 12.9 0.00 0.00 0.00 43 1013.2
20260507194819 19 267 4.8 12.9 0.00 0.00 0.00 40 1013.3
20260507194621 19 244 3.2 9.7 0.00 0.00 0.00 38 1011.2
20260507194558 19 161 3.2 9.7 0.00 0.00 0.00 39 1013.2
20260507194328 19 291 3.2 9.7 0.00 0.00 0.00 41 1013.2
20260507193817 19 315 4.8 12.9 0.00 0.00 0.00 41 1013.3
20260507193346 18 319 4.8 12.9 0.00 0.00 0.00 41 1013.2
20260507193040 18 308 4.8 12.9 0.00 0.00 0.00 42 1013.1
20260507193038 18 318 3.2 12.9 0.00 0.00 0.00 40 1011.2
20260507192833 18 298 1.6 12.9 0.00 0.00 0.00 43 1013.4
20260507192314 18 229 3.2 6.4 0.00 0.00 0.00 45 1013.6
20260507191823 18 203 3.2 9.7 0.00 0.00 0.00 45 1013.7
20260507191610 17 331 1.6 12.9 0.00 0.00 0.00 45 1013.7
20260507191537 17 85 1.6 12.9 0.00 0.00 0.00 44 1011.6
20260507191312 18 270 3.2 12.9 0.00 0.00 0.00 42 1013.9
20260507190821 18 154 4.8 12.9 0.00 0.00 0.00 42 1013.8
20260507190324 18 130 3.2 9.7 0.00 0.00 0.00 46 1013.7
20260507190049 18 322 1.6 9.7 0.00 0.00 0.00 44 1013.7
20260507190037 18 141 1.6 16.1 0.00 0.00 0.00 44 1011.7
20260507185834 18 311 3.2 14.5 0.00 0.00 0.00 44 1013.8
20260507185322 18 300 4.8 16.1 0.00 0.00 0.00 43 1013.8
20260507184809 18 318 3.2 8.0 0.00 0.00 0.00 45 1013.8
20260507184538 18 15 3.2 9.7 0.00 0.00 0.00 43 1011.7
20260507184508 18 28 3.2 8.0 0.00 0.00 0.00 43 1013.9
20260507184318 18 95 4.8 8.0 0.00 0.00 0.00 46 1014.0
20260507183828 19 110 1.6 11.3 0.00 0.00 0.00 42 1014.1
20260507183329 19 297 4.8 11.3 0.00 0.00 0.00 39 1014.0
20260507183102 19 165 4.8 11.3 0.00 0.00 0.00 41 1013.8
20260507183044 19 171 3.2 11.3 0.00 0.00 0.00 43 1011.7
20260507182816 19 16 3.2 11.3 0.00 0.00 0.00 42 1013.9
20260507182325 19 135 4.8 9.7 0.00 0.00 0.00 44 1013.8
20260507181833 18 10 3.2 14.5 0.00 0.00 0.00 52 1013.7
20260507181539 18 142 1.6 14.5 0.00 0.00 0.00 45 1013.7
20260507181532 18 197 3.2 14.5 0.00 0.00 0.00 45 1011.6
20260507181314 18 298 3.2 14.5 0.00 0.00 0.00 43 1013.8
20260507180822 18 336 3.2 8.0 0.00 0.00 0.00 46 1014.0
20260507180310 18 297 1.6 14.5 0.00 0.00 0.00 42 1014.0
20260507180037 18 176 4.8 14.5 0.00 0.00 0.00 41 1011.6
20260507180026 18 176 3.2 14.5 0.00 0.00 0.00 41 1013.8
20260507175840 18 238 6.4 14.5 0.00 0.00 0.00 43 1014.0
20260507175330 18 182 4.8 8.0 0.00 0.00 0.00 47 1014.1
20260507174815 18 189 3.2 8.0 0.00 0.00 0.00 47 1014.1
20260507174608 18 265 3.2 9.7 0.00 0.00 0.00 46 1013.9
20260507174544 18 298 1.6 12.9 0.00 0.00 0.00 45 1011.8
20260507174324 18 138 1.6 12.9 0.00 0.00 0.00 42 1014.1
20260507173833 18 232 4.8 12.9 0.00 0.00 0.00 44 1014.1
20260507173321 18 215 6.4 12.9 0.00 0.00 0.00 45 1014.1
20260507173054 18 194 1.6 8.0 0.00 0.00 0.00 46 1011.9
20260507173019 18 31 1.6 6.4 0.00 0.00 0.00 47 1014.0
20260507172811 18 101 3.2 8.0 0.00 0.00 0.00 45 1014.2
20260507172339 18 62 1.6 11.3 0.00 0.00 0.00 44 1014.2
20260507171827 18 10 3.2 12.9 0.00 0.00 0.00 47 1014.3
20260507171545 18 138 3.2 12.9 0.00 0.00 0.00 47 1014.1
20260507171309 18 173 4.8 8.0 0.00 0.00 0.00 49 1014.3
20260507170816 18 19 3.2 8.0 0.00 0.00 0.00 56 1014.3
20260507170345 17 355 3.2 6.4 0.00 0.00 0.00 51 1014.4
20260507170057 17 304 3.2 8.0 0.00 0.00 0.00 49 1014.2
20260507170039 17 323 3.2 8.0 0.00 0.00 0.00 47 1012.2
20260507165812 17 231 3.2 8.0 0.00 0.00 0.00 45 1014.3
20260507165320 17 5 4.8 6.4 0.00 0.00 0.00 46 1014.5
20260507164831 18 338 1.6 9.7 0.00 0.00 0.00 45 1014.5
20260507164546 18 19 3.2 9.7 0.00 0.00 0.00 44 1012.2
20260507164534 18 19 1.6 9.7 0.00 0.00 0.00 46 1014.4
20260507164340 18 22 4.8 9.7 0.00 0.00 0.00 46 1014.6
20260507163820 18 276 3.2 9.7 0.00 0.00 0.00 47 1014.6
20260507163327 18 109 3.2 6.4 0.00 0.00 0.00 51 1014.7
20260507163059 17 19 3.2 6.4 0.00 0.00 0.00 47 1014.5
20260507163037 17 17 1.6 8.0 0.00 0.00 0.00 47 1012.4
20260507162815 18 38 1.6 8.0 0.00 0.00 0.00 45 1014.7
20260507162323 18 168 3.2 8.0 0.00 0.00 0.00 48 1014.8
20260507161812 18 207 3.2 11.3 0.00 0.00 0.00 49 1014.8
20260507161554 17 196 4.8 14.5 0.00 0.00 0.00 46 1012.7
20260507161535 17 133 3.2 11.3 0.00 0.00 0.00 46 1014.8
20260507161315 18 339 6.4 11.3 0.00 0.00 0.00 48 1014.8
20260507160824 17 148 3.2 9.7 0.00 0.00 0.00 51 1014.9
20260507160311 17 130 3.2 9.7 0.00 0.00 0.00 48 1014.9
20260507160040 17 186 1.6 14.5 0.00 0.00 0.00 48 1012.8
20260507160031 17 238 1.6 12.9 0.00 0.03 0.00 48 1014.9
20260507155819 17 236 1.6 12.9 0.00 0.03 0.00 49 1014.8
20260507155321 17 289 6.4 12.9 0.00 0.03 0.00 52 1014.8
20260507154828 17 136 4.8 9.7 0.00 0.03 0.00 47 1014.9
20260507154542 17 45 3.2 11.3 0.00 0.03 0.00 48 1013.0
20260507154504 17 17 3.2 9.7 0.00 0.03 0.00 49 1015.0
20260507154318 17 324 4.8 9.7 0.00 0.03 0.00 50 1015.1
20260507153826 17 295 3.2 9.7 0.00 0.03 0.00 51 1015.0
20260507153313 17 117 4.8 9.7 0.00 0.03 0.00 50 1014.9
20260507153053 16 180 1.6 8.0 0.00 0.03 0.00 52 1015.0
20260507153038 16 212 1.6 8.0 0.00 0.03 0.00 51 1012.9
20260507152820 17 127 3.2 8.0 0.00 0.03 0.00 54 1015.0
20260507152310 16 171 1.6 8.0 0.00 0.03 0.00 55 1015.0
20260507151839 16 232 1.6 8.0 0.00 0.03 0.00 51 1015.1
20260507151534 16 284 1.6 8.0 0.00 0.03 0.00 53 1013.0
20260507151528 16 252 3.2 8.0 0.00 0.03 0.00 53 1015.0
20260507151343 16 22 3.2 4.8 0.00 0.03 0.00 54 1015.1
20260507150833 16 348 1.6 6.4 0.00 0.03 0.00 56 1015.1
20260507150320 16 34 3.2 4.8 0.00 0.03 0.00 59 1015.3
20260507150037 16 0 0.0 4.8 0.00 0.03 0.00 54 1013.1
20260507150025 16 194 0.0 4.8 0.00 0.05 0.00 54 1015.2
20260507145827 16 194 1.6 4.8 0.00 0.05 0.00 54 1015.2
20260507145339 16 285 0.0 8.0 0.00 0.05 0.00 59 1015.3
20260507144820 16 98 1.6 8.0 0.00 0.05 0.00 54 1015.3
20260507144559 16 38 0.0 4.8 0.00 0.05 0.00 56 1015.2
20260507144542 16 360 0.0 6.4 0.00 0.05 0.00 55 1013.1
20260507144312 16 248 1.6 6.4 0.00 0.05 0.00 54 1015.3
20260507143822 16 13 1.6 6.4 0.00 0.05 0.00 55 1015.2
20260507143332 16 30 4.8 8.0 0.00 0.05 0.00 52 1015.2
20260507143044 16 11 4.8 9.7 0.00 0.05 0.00 54 1015.1
20260507143040 16 59 3.2 9.7 0.00 0.05 0.00 54 1013.1
20260507142814 16 360 4.8 9.7 0.00 0.05 0.00 53 1015.1
20260507142323 16 36 4.8 9.7 0.00 0.05 0.00 55 1015.2
20260507141811 16 360 1.6 4.8 0.00 0.05 0.00 56 1015.5
20260507141545 15 325 0.0 4.8 0.00 0.05 0.00 60 1013.4
20260507141522 15 318 1.6 4.8 0.00 0.05 0.00 61 1015.5
20260507141320 15 13 1.6 4.8 0.00 0.05 0.00 58 1015.6
20260507140848 15 12 1.6 4.8 0.00 0.05 0.00 62 1015.7
20260507140334 15 346 1.6 8.0 0.00 0.05 0.00 61 1015.8
20260507140041 15 33 1.6 8.0 0.00 0.10 0.00 61 1015.7
20260507140038 15 33 1.6 8.0 0.00 0.05 0.00 60 1013.6
20260507135816 15 18 1.6 8.0 0.00 0.10 0.00 62 1015.8
20260507135323 15 19 1.6 8.0 0.00 0.10 0.00 67 1015.8
20260507134830 14 109 3.2 8.0 0.00 0.10 0.00 66 1015.8
20260507134540 13 84 1.6 8.0 0.00 0.10 0.00 65 1013.6
20260507134513 13 44 1.6 8.0 0.00 0.10 0.00 65 1015.7
20260507134316 13 215 1.6 8.0 0.00 0.10 0.00 62 1015.9
20260507133819 13 54 6.4 8.0 0.00 0.10 0.00 62 1015.9
20260507133353 13 55 3.2 6.4 0.00 0.10 0.00 64 1015.9
20260507133040 13 51 1.6 4.8 0.00 0.10 0.00 66 1015.9
20260507133038 13 51 1.6 4.8 0.00 0.10 0.00 66 1013.8
20260507132814 13 46 1.6 4.8 0.00 0.10 0.00 67 1016.0
20260507132322 13 5 1.6 4.8 0.00 0.10 0.00 73 1016.0
20260507131828 12 111 3.2 4.8 0.00 0.10 0.00 80 1016.1
20260507131539 12 0 0.0 4.8 0.00 0.10 0.00 83 1013.9
20260507131508 12 73 0.0 4.8 0.00 0.10 0.00 83 1016.0
20260507131316 12 94 1.6 4.8 0.00 0.10 0.00 84 1016.2
20260507130824 12 54 1.6 3.2 0.00 0.10 0.00 87 1016.1
20260507130310 11 95 1.6 3.2 0.00 0.10 0.00 88 1016.0
20260507130048 11 61 0.0 3.2 0.00 0.10 0.00 89 1016.0
20260507130039 11 0 0.0 3.2 0.00 0.10 0.00 88 1013.9
20260507125818 11 65 1.6 3.2 0.00 0.18 0.00 89 1016.1
20260507125348 11 134 1.6 3.2 0.00 0.18 0.00 89 1016.2
20260507124838 10 175 0.0 1.6 0.00 0.18 0.00 89 1016.1
20260507124551 10 175 0.0 1.6 0.00 0.18 0.00 89 1016.1
20260507124538 10 0 0.0 1.6 0.00 0.18 0.00 89 1013.8
20260507124353 10 175 0.0 0.0 0.00 0.18 0.00 89 1016.1
20260507123815 10 175 0.0 1.6 0.00 0.18 0.00 89 1016.2
20260507123326 10 175 0.0 1.6 0.00 0.18 0.00 89 1016.2
20260507123041 9 0 0.0 1.6 0.00 0.18 0.00 89 1013.9
20260507123007 9 175 0.0 1.6 0.00 0.18 0.00 89 1016.1
20260507122814 10 175 0.0 1.6 0.00 0.18 0.00 89 1016.2
20260507122320 10 175 0.0 1.6 0.00 0.18 0.00 89 1016.2
20260507121826 10 178 0.0 1.6 0.00 0.18 0.00 89 1016.2
20260507121533 9 0 0.0 1.6 0.00 0.18 0.00 88 1013.9
20260507121309 9 232 0.0 1.6 0.00 0.18 0.00 89 1016.3
20260507120817 9 232 0.0 1.6 0.00 0.18 0.00 89 1016.4
20260507120326 9 232 0.0 1.6 0.00 0.18 0.00 89 1016.3
20260507120042 8 0 0.0 0.0 0.00 0.18 0.00 88 1014.0
20260507120012 8 232 0.0 0.0 0.00 0.30 0.00 89 1016.2
20260507115814 9 232 0.0 0.0 0.00 0.30 0.00 89 1016.3
20260507115325 8 233 0.0 0.0 0.00 0.30 0.00 89 1016.4
20260507114809 8 233 0.0 0.0 0.00 0.30 0.00 88 1016.3
20260507114555 8 233 0.0 0.0 0.00 0.30 0.00 88 1016.2
20260507114539 8 0 0.0 0.0 0.00 0.30 0.00 92 1014.1
20260507114317 8 233 0.0 0.0 0.00 0.30 0.00 88 1016.3
20260507113846 8 233 0.0 0.0 0.00 0.30 0.00 88 1016.2
20260507113314 8 233 0.0 0.0 0.00 0.30 0.00 88 1016.1
20260507113042 8 0 0.0 0.0 0.00 0.30 0.00 88 1013.8
20260507113017 8 234 0.0 0.0 0.00 0.30 0.00 88 1016.0
20260507112821 8 234 0.0 0.0 0.00 0.30 0.00 88 1015.9
20260507112329 8 234 0.0 0.0 0.00 0.30 0.00 88 1015.9
20260507111812 8 234 0.0 0.0 0.00 0.30 0.00 88 1015.8
20260507111552 8 234 0.0 0.0 0.00 0.30 0.00 88 1015.6
20260507111539 8 0 0.0 0.0 0.00 0.30 0.00 87 1013.6
20260507111320 8 234 0.0 0.0 0.00 0.30 0.00 88 1015.8
20260507110830 8 234 0.0 0.0 0.00 0.30 0.00 88 1015.8
20260507110318 8 234 0.0 0.0 0.00 0.30 0.00 88 1015.7
20260507110105 8 234 0.0 0.0 0.00 0.30 0.00 88 1015.5
20260507110038 8 0 0.0 0.0 0.00 0.30 0.00 88 1013.5
20260507105827 8 234 0.0 0.0 0.00 0.48 0.00 88 1015.7
20260507105314 8 234 0.0 0.0 0.00 0.48 0.00 88 1015.6
20260507104824 8 234 0.0 0.0 0.00 0.48 0.00 88 1015.5
20260507104536 8 234 0.0 0.0 0.00 0.48 0.00 88 1015.3
20260507104532 8 0 0.0 0.0 0.00 0.48 0.00 87 1013.3
20260507104333 8 234 0.0 0.0 0.00 0.48 0.00 88 1015.4
20260507103817 8 234 0.0 0.0 0.00 0.48 0.00 88 1015.3
20260507103326 8 234 0.0 0.0 0.00 0.48 0.00 88 1015.3
20260507103038 8 0 0.0 0.0 0.00 0.48 0.00 87 1013.2
20260507103013 8 234 0.0 0.0 0.00 0.48 0.00 88 1015.1
20260507102816 8 234 0.0 0.0 0.00 0.48 0.00 88 1015.2
20260507102325 8 234 0.0 0.0 0.00 0.48 0.00 88 1015.2
20260507101827 8 156 0.0 0.0 0.00 0.48 0.00 87 1015.1
20260507101616 8 225 0.0 0.0 0.00 0.48 0.00 87 1015.1
20260507101537 8 0 0.0 1.6 0.00 0.48 0.00 87 1013.0
20260507101317 8 225 0.0 1.6 0.00 0.48 0.00 87 1015.3
20260507100825 8 225 0.0 1.6 0.00 0.48 0.00 87 1015.4
20260507100310 8 241 0.0 0.0 0.00 0.48 0.00 87 1015.4
20260507100046 8 241 0.0 0.0 0.00 0.48 0.00 87 1015.3
20260507100042 8 0 0.0 0.0 0.00 0.48 0.00 87 1013.2
20260507095819 8 241 0.0 0.0 0.00 0.86 0.00 87 1015.5
20260507095329 8 241 0.0 0.0 0.00 0.86 0.00 87 1015.5
20260507094840 8 241 0.0 0.0 0.00 0.86 0.00 87 1015.5
20260507094537 7 0 0.0 0.0 0.00 0.86 0.00 86 1013.2
20260507094506 7 241 0.0 0.0 0.00 0.86 0.00 87 1015.3
20260507094348 8 241 0.0 0.0 0.00 0.86 0.00 87 1015.5
20260507093816 8 241 0.0 0.0 0.00 0.86 0.00 87 1015.3
20260507093326 8 241 0.0 0.0 0.00 0.86 0.00 87 1015.5
20260507093041 7 241 0.0 0.0 0.00 0.86 0.00 87 1015.3
20260507093036 7 0 0.0 0.0 0.00 0.86 0.00 86 1013.2